Good Bye Litespeed [SSG TEAM]

v.1.3

Zona waktu server: Asia/Jakarta

Waktu server saat ini: 2026-05-07 02:52:14


curdir: / / usr / share / vim / vim82 / tutor / [ GO Home ]

Item NameSizeDatePermissionsViewDeleteRename
. 4096 2022-03-29 14:17:42 0755
.. 4096 2022-03-29 14:17:42 0755
tutor 33435 2021-10-01 08:51:08 0644
tutor.bar 40896 2021-10-01 08:51:08 0644
tutor.bar.utf-8 41845 2021-10-01 08:51:08 0644
tutor.bg.utf-8 60525 2021-10-01 08:51:08 0644
tutor.ca 28437 2021-10-01 08:51:08 0644
tutor.ca.utf-8 28917 2021-10-01 08:51:08 0644
tutor.cs 25677 2021-10-01 08:51:08 0644
tutor.cs.cp1250 25677 2021-10-01 08:51:08 0644
tutor.cs.utf-8 27998 2021-10-01 08:51:08 0644
tutor.da 34683 2021-10-01 08:51:08 0644
tutor.da.utf-8 35402 2021-10-01 08:51:08 0644
tutor.de 38836 2021-10-01 08:51:08 0644
tutor.de.utf-8 39254 2021-10-01 08:51:08 0644
tutor.el 30221 2021-10-01 08:51:08 0644
tutor.el.cp737 30221 2021-10-01 08:51:08 0644
tutor.el.utf-8 47157 2021-10-01 08:51:08 0644
tutor.eo 35150 2021-10-01 08:51:08 0644
tutor.eo.utf-8 35623 2021-10-01 08:51:08 0644
tutor.es 27598 2021-10-01 08:51:08 0644
tutor.es.utf-8 28048 2021-10-01 08:51:08 0644
tutor.fr 38502 2021-10-01 08:51:08 0644
tutor.fr.utf-8 39311 2021-10-01 08:51:08 0644
tutor.hr 33909 2021-10-01 08:51:08 0644
tutor.hr.cp1250 33909 2021-10-01 08:51:08 0644
tutor.hr.utf-8 34428 2021-10-01 08:51:08 0644
tutor.hu 27194 2021-10-01 08:51:08 0644
tutor.hu.cp1250 27194 2021-10-01 08:51:08 0644
tutor.hu.utf-8 28954 2021-10-01 08:51:08 0644
tutor.it 36329 2021-10-01 08:51:08 0644
tutor.it.utf-8 36461 2021-10-01 08:51:08 0644
tutor.ja.euc 33382 2021-10-01 08:51:08 0644
tutor.ja.sjis 33382 2021-10-01 08:51:08 0644
tutor.ja.utf-8 44131 2021-10-01 08:51:08 0644
tutor.ko 42315 2021-10-01 08:51:08 0644
tutor.ko.euc 33925 2021-10-01 08:51:08 0644
tutor.ko.utf-8 42315 2021-10-01 08:51:08 0644
tutor.lv.utf-8 39015 2021-10-01 08:51:08 0644
tutor.nb 34628 2021-10-01 08:51:08 0644
tutor.nb.utf-8 35425 2021-10-01 08:51:08 0644
tutor.nl 37323 2021-10-01 08:51:08 0644
tutor.nl.utf-8 37336 2021-10-01 08:51:08 0644
tutor.no 34628 2021-10-01 08:51:08 0644
tutor.no.utf-8 35425 2021-10-01 08:51:08 0644
tutor.pl 34149 2021-10-01 08:51:08 0644
tutor.pl.cp1250 34149 2021-10-01 08:51:08 0644
tutor.pl.utf-8 35451 2021-10-01 08:51:08 0644
tutor.pt 36269 2021-10-01 08:51:08 0644
tutor.pt.utf-8 36989 2021-10-01 08:51:08 0644
tutor.ru 36044 2021-10-01 08:51:08 0644
tutor.ru.cp1251 36044 2021-10-01 08:51:08 0644
tutor.ru.utf-8 57428 2021-10-01 08:51:08 0644
tutor.sk 33313 2021-10-01 08:51:08 0644
tutor.sk.cp1250 33310 2021-10-01 08:51:08 0644
tutor.sk.utf-8 35525 2021-10-01 08:51:08 0644
tutor.sr.cp1250 33060 2021-10-01 08:51:08 0644
tutor.sr.utf-8 33557 2021-10-01 08:51:08 0644
tutor.sv 27798 2021-10-01 08:51:08 0644
tutor.sv.utf-8 28700 2021-10-01 08:51:08 0644
tutor.tr.iso9 33488 2021-10-01 08:51:08 0644
tutor.tr.utf-8 36120 2021-10-01 08:51:08 0644
tutor.uk.utf-8 53562 2021-10-01 08:51:08 0644
tutor.utf-8 33435 2021-10-01 08:51:08 0644
tutor.vi.utf-8 32339 2021-10-01 08:51:08 0644
tutor.vim 5481 2021-10-01 08:51:08 0644
tutor.zh.big5 24364 2021-10-01 08:51:08 0644
tutor.zh.euc 30043 2021-10-01 08:51:08 0644
tutor.zh.utf-8 31408 2021-10-01 08:51:08 0644
tutor.zh_cn.utf-8 38811 2021-10-01 08:51:08 0644
tutor.zh_tw.utf-8 31408 2021-10-01 08:51:08 0644